| time (UTC) | temp C | wind direction | speed KPH | gust KPH | rain 1hr cm | rain 24hr cm | rain mn cm | humidity % | barometer mb |
| 20260504110110 | 13 | 60 | 6.4 | 19.3 | 0.00 | 0.00 | 0.00 | 43 | 994.7 |
| 20260504081551 | 13 | 32 | 4.8 | 17.7 | 0.00 | 0.00 | 0.00 | 39 | 997.3 |
| 20260504043057 | 13 | 329 | 0.0 | 6.4 | 0.00 | 0.00 | 0.00 | 42 | 1001.7 |
| 20260504041559 | 14 | 39 | 0.0 | 0.0 | 0.00 | 0.00 | 0.00 | 41 | 1001.6 |
| 20260504040054 | 14 | 6 | 0.0 | 4.8 | 0.00 | 0.00 | 0.00 | 40 | 1002.3 |
| 20260504034553 | 13 | 32 | 0.0 | 3.2 | 0.00 | 0.00 | 0.00 | 42 | 1002.6 |
| 20260504033051 | 14 | 86 | 0.0 | 1.6 | 0.00 | 0.00 | 0.00 | 40 | 1002.5 |
| 20260504031550 | 14 | 86 | 0.0 | 1.6 | 0.00 | 0.00 | 0.00 | 38 | 1003.2 |
| 20260504030049 | 15 | 86 | 0.0 | 1.6 | 0.00 | 0.00 | 0.00 | 36 | 1003.4 |
| 20260504024609 | 16 | 86 | 0.0 | 0.0 | 0.00 | 0.00 | 0.00 | 33 | 1003.5 |
| 20260504023048 | 16 | 73 | 0.0 | 1.6 | 0.00 | 0.00 | 0.00 | 32 | 1003.2 |
| 20260504020043 | 17 | 57 | 0.0 | 3.2 | 0.00 | 0.00 | 0.00 | 30 | 1003.3 |
| 20260504014541 | 17 | 65 | 0.0 | 3.2 | 0.00 | 0.00 | 0.00 | 28 | 1003.3 |
| 20260504013040 | 18 | 110 | 0.0 | 4.8 | 0.00 | 0.00 | 0.00 | 27 | 1003.3 |
| 20260504011539 | 18 | 77 | 0.0 | 3.2 | 0.00 | 0.00 | 0.00 | 25 | 1003.3 |
| 20260504010037 | 19 | 93 | 1.6 | 14.5 | 0.00 | 0.00 | 0.00 | 25 | 1003.4 |
| 20260504004544 | 20 | 63 | 1.6 | 11.3 | 0.00 | 0.00 | 0.00 | 24 | 1003.5 |
| 20260504003041 | 20 | 82 | 6.4 | 17.7 | 0.00 | 0.00 | 0.00 | 24 | 1003.6 |
| 20260504001542 | 20 | 93 | 8.0 | 16.1 | 0.00 | 0.00 | 0.00 | 24 | 1003.7 |
| 20260504000053 | 20 | 106 | 6.4 | 17.7 | 0.00 | 0.00 | 0.00 | 24 | 1003.6 |
| 20260503234535 | 20 | 105 | 3.2 | 11.3 | 0.00 | 0.00 | 0.00 | 24 | 1003.7 |
| 20260503233031 | 21 | 117 | 9.7 | 17.7 | 0.00 | 0.00 | 0.00 | 22 | 1003.8 |
| 20260503231531 | 21 | 89 | 8.0 | 29.0 | 0.00 | 0.00 | 0.00 | 22 | 1003.9 |
| 20260503230030 | 21 | 110 | 4.8 | 17.7 | 0.00 | 0.00 | 0.00 | 22 | 1004.0 |
| 20260503224529 | 21 | 89 | 9.7 | 16.1 | 0.00 | 0.00 | 0.00 | 21 | 1004.2 |
| 20260503223036 | 21 | 178 | 8.0 | 22.5 | 0.00 | 0.00 | 0.00 | 21 | 1004.2 |
| 20260503221525 | 21 | 103 | 6.4 | 19.3 | 0.00 | 0.00 | 0.00 | 21 | 1004.2 |
| 20260503220026 | 21 | 68 | 6.4 | 19.3 | 0.00 | 0.00 | 0.00 | 21 | 1004.3 |
| 20260503214524 | 21 | 115 | 6.4 | 16.1 | 0.00 | 0.00 | 0.00 | 22 | 1004.6 |
| 20260503213023 | 21 | 115 | 9.7 | 16.1 | 0.00 | 0.00 | 0.00 | 22 | 1004.7 |
| 20260503211522 | 21 | 155 | 3.2 | 19.3 | 0.00 | 0.00 | 0.00 | 21 | 1004.8 |
| 20260503210020 | 21 | 120 | 6.4 | 19.3 | 0.00 | 0.00 | 0.00 | 22 | 1004.9 |
| 20260503204520 | 20 | 115 | 9.7 | 22.5 | 0.00 | 0.00 | 0.00 | 22 | 1005.2 |
| 20260503203028 | 20 | 110 | 8.0 | 20.9 | 0.00 | 0.00 | 0.00 | 22 | 1005.2 |
| 20260503201519 | 21 | 75 | 4.8 | 12.9 | 0.00 | 0.00 | 0.00 | 22 | 1005.3 |
| 20260503200018 | 20 | 132 | 12.9 | 19.3 | 0.00 | 0.00 | 0.00 | 21 | 1005.5 |
| 20260503194517 | 20 | 122 | 11.3 | 22.5 | 0.00 | 0.00 | 0.00 | 23 | 1005.5 |
| 20260503193018 | 21 | 131 | 8.0 | 19.3 | 0.00 | 0.00 | 0.00 | 29 | 1005.6 |
| 20260503191514 | 20 | 127 | 12.9 | 24.1 | 0.00 | 0.00 | 0.00 | 27 | 1005.9 |
| 20260503190012 | 20 | 125 | 16.1 | 30.6 | 0.00 | 0.00 | 0.00 | 27 | 1005.8 |
| 20260503184510 | 20 | 120 | 8.0 | 24.1 | 0.00 | 0.00 | 0.00 | 25 | 1005.8 |
| 20260503183007 | 20 | 117 | 9.7 | 22.5 | 0.00 | 0.00 | 0.00 | 29 | 1006.0 |
| 20260503181506 | 20 | 114 | 12.9 | 22.5 | 0.00 | 0.00 | 0.00 | 30 | 1006.1 |
| 20260503180004 | 20 | 103 | 1.6 | 22.5 | 0.00 | 0.00 | 0.00 | 33 | 1006.5 |
| 20260503174508 | 20 | 58 | 4.8 | 20.9 | 0.00 | 0.00 | 0.00 | 34 | 1006.6 |
| 20260503173004 | 20 | 115 | 9.7 | 20.9 | 0.00 | 0.00 | 0.00 | 33 | 1006.6 |
| 20260503171603 | 20 | 123 | 0.0 | 11.3 | 0.00 | 0.00 | 0.00 | 37 | 1006.7 |